Kuchera_Ratio
0.0 0.0 0.0 0.0 0.0 0.0 0.0 0.0 0.0 0.0 0.0 0.0 0.0 0.0 0.0 0.0 0.0 0.0 0.0 0.0 0.0 0.0
0.0 0.0 0.0 0.0 0.0 0.0 0.0 0.0 0.0 0.0 0.0 0.0 0.0 0.0 0.0 0.0 0.0 0.0 0.0 0.0 0.0 0.0
0.0 0.0 0.0 0.0 0.0 0.0 0.0 0.0 0.0 0.0 0.0 0.0 0.0 0.0 0.0 0.0 0.0 0.0 0.0 0.0 0.0 0.0
0.0 0.0 0.0 0.0 0.0 0.0 0.0 0.0 0.0 0.0 0.0 0.0 0.0 0.0 0.0 0.0 0.0 0.0 0.0 0.0 0.0 0.0
0.0 0.0 0.0 0.0 0.0 0.0 0.0 0.0 0.0 0.0 0.0 0.0 0.0 0.0 0.0 0.0 0.0 0.0 0.0 0.0 0.0 0.0
0.3 0.4 1.3 2.0 0.0 0.0 0.0 0.0 0.0 0.0 0.0 0.0 0.0 0.0 0.0 0.0 0.0 0.0 0.0 0.0 0.0 0.0
1.4 2.0 2.2 2.8 2.8 1.1 0.0 0.6 0.0 0.0 0.0 0.0 0.0 0.0 0.0 0.0 0.0 0.0 0.0 0.0 0.0 0.0
2.5 3.4 4.0 4.3 4.8 3.8 3.5 3.0 3.1 2.6 1.4 0.0 0.0 0.0 0.0 0.0 0.0 0.0 0.0 0.0 0.0 0.0
1.5 2.8 3.8 4.3 4.9 5.2 5.9 5.8 4.7 3.7 3.0 2.8 0.0 0.0 0.0 0.0 0.0 0.0 0.2 1.7 0.9 0.0
2.8 3.6 4.1 4.7 5.3 6.1 6.5 7.0 7.5 7.0 5.5 3.9 1.5 0.0 0.0 0.0 2.1 4.1 4.5 4.6 4.6 2.9
3.5 4.3 5.0 5.7 6.8 7.3 7.4 7.6 7.8 7.4 6.9 6.0 0.8 0.0 0.0 0.0 2.6 3.7 3.9 3.6 3.8 4.7
4.1 5.3 6.3 7.4 7.9 8.0 8.2 8.1 8.0 7.7 7.0 6.6 5.4 0.0 0.0 1.9 5.3 5.9 6.0 3.8 2.9 2.5
4.5 5.9 7.3 8.2 8.6 8.7 8.8 8.8 8.0 7.4 7.0 3.6 6.0 0.3 0.0 2.1 6.9 8.0 7.5 6.6 6.0 0.6
5.2 6.4 7.4 8.4 9.0 9.4 9.3 9.2 9.2 9.1 8.4 7.6 7.4 6.0 0.0 0.0 6.7 6.0 9.1 9.4 9.2 8.0